This is the latest recevied weather packets stored in our database for station/object KD9ZDW. If no packets are shown the sender has not sent any weather packets the latest 10 day(s).
| Time | Temp. | Humidity | Pressure | Rain* | Wind** | Luminosity | Snow |
|---|---|---|---|---|---|---|---|
| 1777417981 | 15° C | 73% | 1014.9 hPa | 0 mm | - | 60 W/m² | - |
| 1777417678 | 15° C | 72% | 1014.9 hPa | 0 mm | - | 63 W/m² | - |
| 1777417373 | 15° C | 72% | 1015.2 hPa | 0 mm | - | 66 W/m² | - |
| 1777417070 | 15° C | 72% | 1015.3 hPa | 0 mm | - | 66 W/m² | - |
| 1777416766 | 15.56° C | 71% | 1015.4 hPa | 0 mm | - | 65 W/m² | - |
| 1777416461 | 15.56° C | 70% | 1015.1 hPa | 0 mm | - | 82 W/m² | - |
| 1777416157 | 15.56° C | 71% | 1015 hPa | 0 mm | - | 99 W/m² | - |
| 1777415852 | 15° C | 71% | 1015.2 hPa | 0 mm | - | 94 W/m² | - |
| 1777415547 | 15.56° C | 69% | 1015.2 hPa | 0 mm | - | 116 W/m² | - |
| 1777415244 | 15° C | 73% | 1015.2 hPa | 0 mm | - | 76 W/m² | - |
| 1777414939 | 15° C | 73% | 1015.4 hPa | 0 mm | - | 104 W/m² | - |
| 1777414638 | 15° C | 73% | 1015.6 hPa | 0 mm | - | 83 W/m² | - |
| 1777414333 | 15° C | 72% | 1016 hPa | 0 mm | - | 176 W/m² | - |
| 1777414029 | 15° C | 74% | 1016 hPa | 0 mm | - | 155 W/m² | - |
| 1777413723 | 15° C | 73% | 1016.2 hPa | 0 mm | - | 128 W/m² | - |
| 1777413419 | 15° C | 74% | 1016.3 hPa | 0 mm | - | 103 W/m² | - |
| 1777413116 | 15° C | 75% | 1016 hPa | 0 mm | - | 107 W/m² | - |
| 1777412811 | 15° C | 73% | 1016.2 hPa | 0 mm | - | 103 W/m² | - |
| 1777412510 | 15° C | 72% | 1015.9 hPa | 0 mm | - | 110 W/m² | - |
| 1777412208 | 15° C | 72% | 1016 hPa | 0 mm | - | 98 W/m² | - |
| 1777411904 | 15° C | 72% | 1015.9 hPa | 0 mm | - | 103 W/m² | - |
| 1777411603 | 15° C | 74% | 1015.9 hPa | 0 mm | - | 110 W/m² | - |
| 1777411299 | 15° C | 73% | 1016 hPa | 0 mm | - | 116 W/m² | - |
| 1777410997 | 15° C | 72% | 1015.9 hPa | 0 mm | - | 145 W/m² | - |
| 1777410697 | 15° C | 72% | 1016.1 hPa | 0 mm | - | 141 W/m² | - |
* Rain latest hour (hover to see other rain measurements)
** Current wind speed in m/s (hover to see current wind gust speed)